TimeMST,TemperatureF,Dew PointF,Humidity,Sea Level PressureIn,VisibilityMPH,Wind Direction,Wind SpeedMPH,Gust SpeedMPH,PrecipitationIn,Events,Conditions,WindDirDegrees,DateUTC
12:53 AM,33.1,25.0,72,30.03,10.0,NNE,6.9,-,0.00,,Overcast,20,2013-02-07 07:53:00
1:53 AM,32.0,23.0,69,30.05,10.0,Calm,Calm,-,N/A,,Overcast,0,2013-02-07 08:53:00
2:53 AM,32.0,23.0,69,30.07,10.0,WNW,3.5,-,N/A,,Overcast,290,2013-02-07 09:53:00
3:53 AM,30.9,24.1,76,30.07,10.0,Calm,Calm,-,N/A,,Overcast,0,2013-02-07 10:53:00
4:53 AM,28.9,24.1,82,30.10,10.0,SW,5.8,-,N/A,,Scattered Clouds,230,2013-02-07 11:53:00
5:53 AM,27.0,21.9,81,30.12,10.0,WSW,5.8,-,N/A,,Partly Cloudy,240,2013-02-07 12:53:00
6:53 AM,26.1,21.9,84,30.14,10.0,SW,8.1,-,N/A,,Partly Cloudy,230,2013-02-07 13:53:00
7:53 AM,26.1,21.9,84,30.17,8.0,SW,4.6,-,N/A,,Clear,230,2013-02-07 14:53:00
8:53 AM,30.9,26.1,82,30.18,8.0,SW,6.9,-,N/A,,Clear,230,2013-02-07 15:53:00
9:53 AM,35.1,27.0,72,30.17,10.0,SSW,8.1,-,N/A,,Clear,210,2013-02-07 16:53:00
10:53 AM,39.9,24.1,53,30.15,10.0,SSW,6.9,-,N/A,,Partly Cloudy,210,2013-02-07 17:53:00
11:53 AM,42.1,17.1,37,30.13,10.0,South,6.9,-,N/A,,Partly Cloudy,190,2013-02-07 18:53:00
12:53 PM,44.1,12.9,28,30.09,10.0,South,9.2,16.1,N/A,,Partly Cloudy,170,2013-02-07 19:53:00
1:53 PM,46.0,10.0,23,30.06,10.0,SSE,11.5,16.1,N/A,,Partly Cloudy,150,2013-02-07 20:53:00
2:53 PM,48.0,8.1,20,30.04,10.0,SSE,10.4,-,N/A,,Partly Cloudy,150,2013-02-07 21:53:00
3:53 PM,48.0,1.0,14,30.02,10.0,SE,9.2,-,N/A,,Partly Cloudy,130,2013-02-07 22:53:00
4:53 PM,44.1,1.9,17,30.04,10.0,SE,9.2,-,N/A,,Partly Cloudy,140,2013-02-07 23:53:00
5:53 PM,35.1,6.1,30,30.09,10.0,SE,8.1,-,N/A,,Partly Cloudy,140,2013-02-08 00:53:00
6:53 PM,30.0,16.0,56,30.12,10.0,South,12.7,-,N/A,,Clear,170,2013-02-08 01:53:00
7:53 PM,28.0,18.0,66,30.12,10.0,SSE,10.4,-,N/A,,Clear,160,2013-02-08 02:53:00
8:53 PM,28.9,19.9,69,30.08,10.0,South,12.7,-,N/A,,Clear,170,2013-02-08 03:53:00
9:53 PM,32.0,19.0,59,30.04,10.0,SSE,5.8,-,N/A,,Clear,160,2013-02-08 04:53:00
10:53 PM,34.0,18.0,52,30.00,10.0,SSW,15.0,-,N/A,,Partly Cloudy,200,2013-02-08 05:53:00
11:53 PM,36.0,17.1,46,29.97,10.0,South,24.2,-,N/A,,Partly Cloudy,190,2013-02-08 06:53:00